JQ1YXN-13 Weather Reports


Display with metric or nautical units.
time (UTC)temp
F
wind
direction
speed
MPH
gust
MPH
rain 1hr
in
rain 24hr
in
rain mn
in
humidity
%
barometer
mb
20190325012540 47 208 0.0 0.0 0.00 0.00 0.00 79 1013.5
20190325011739 46 45 0.0 0.0 0.00 0.00 0.00 83 1013.6
20190325010939 45 237 0.0 0.0 0.00 0.00 0.00 84 1013.8
20190325010139 44 184 0.0 0.0 0.00 0.00 0.00 85 1014.0
20190325004538 42 165 0.0 0.0 0.00 0.00 0.00 86 1014.0
20190325003738 41 180 0.0 0.0 0.00 0.00 0.00 89 1014.2
20190325002938 40 63 0.0 0.0 0.00 0.00 0.00 89 1014.4
20190325002137 39 0 0.0 0.0 0.00 0.00 0.00 91 1014.6
20190325001337 38 6 0.0 0.0 0.00 0.00 0.00 1 1014.5
20190325000537 37 9 0.0 0.0 0.00 0.00 0.00 4 1014.8
20190324235736 36 141 0.0 0.0 0.00 0.00 0.00 7 1014.9
20190324234937 35 54 0.0 0.0 0.00 0.00 0.00 8 1015.0
20190324234136 34 193 0.0 0.0 0.00 0.00 0.00 12 1014.9
20190324233336 33 270 0.0 0.0 0.00 0.00 0.00 6 1015.1
20190324232536 32 0 0.0 0.0 0.00 0.00 0.00 26 1014.9
20190324231735 32 69 0.0 0.0 0.00 0.00 0.00 14 1014.9
20190324230935 31 189 0.0 0.0 0.00 0.00 0.00 11 1015.3
20190324230135 30 30 0.0 0.0 0.00 0.00 0.00 18 1015.6
20190324225334 30 45 0.0 0.0 0.00 0.00 0.00 20 1015.9
20190324224534 29 13 0.0 0.0 0.00 0.00 0.00 16 1015.8
20190324223734 28 4 0.0 0.0 0.00 0.00 0.00 14 1015.9
20190324222933 27 15 0.0 0.0 0.00 0.00 0.00 21 1016.0
20190324222133 27 307 0.0 0.0 0.00 0.00 0.00 17 1015.9
20190324221333 26 211 0.0 0.0 0.00 0.00 0.00 37 1015.9
20190324220532 25 27 0.0 0.0 0.00 0.00 0.00 33 1015.8
20190324215732 25 0 0.0 0.0 0.00 0.00 0.00 25 1016.5
20190324214932 24 12 0.0 0.0 0.00 0.00 0.00 24 1016.1
20190324214132 23 225 0.0 0.0 0.00 0.00 0.00 20 1016.2
20190324212528 23 180 0.0 0.0 0.00 0.00 0.00 17 1016.2
20190324211717 23 0 0.0 0.0 0.00 0.00 0.00 12 1016.2
20190324210917 22 0 0.0 0.0 0.00 0.00 0.00 18 1016.4
20190324210117 22 69 0.0 0.0 0.00 0.00 0.00 15 1016.0
20190324205316 22 180 0.0 0.0 0.00 0.00 0.00 29 1015.8
20190324204516 23 180 0.0 0.0 0.00 0.00 0.00 15 1016.2
20190324203716 23 180 0.0 0.0 0.00 0.00 0.00 32 1015.7
20190324202855 23 180 0.0 0.0 0.00 0.00 0.00 14 1016.0
20190324202054 22 180 0.0 0.0 0.00 0.00 0.00 17 1016.0
20190324201254 23 225 0.0 0.0 0.00 0.00 0.00 15 1016.0
20190324200454 22 90 0.0 0.0 0.00 0.00 0.00 24 1016.0
20190324195653 23 87 0.0 0.0 0.00 0.00 0.00 13 1016.0
20190324194853 23 87 0.0 0.0 0.00 0.00 0.00 22 1015.6
20190324194053 23 90 0.0 0.0 0.00 0.00 0.00 13 1015.7
20190324193242 23 87 0.0 0.0 0.00 0.00 0.00 28 1015.5
20190324192442 23 180 0.0 0.0 0.00 0.00 0.00 11 1015.5
20190324191641 23 180 0.0 0.0 0.00 0.00 0.00 28 1015.4
20190324190841 23 180 0.0 0.0 0.00 0.00 0.00 22 1015.5
20190324190020 23 180 0.0 0.0 0.00 0.00 0.00 24 1015.5
20190324185220 24 180 0.0 0.0 0.00 0.00 0.00 14 1015.7
20190324184419 23 180 0.0 0.0 0.00 0.00 0.00 12 1015.5
20190324183619 24 180 0.0 0.0 0.00 0.00 0.00 12 1015.7
20190324182819 24 180 0.0 0.0 0.00 0.00 0.00 19 1015.1
20190324181926 24 225 0.0 0.0 0.00 0.00 0.00 12 1015.7
20190324181126 24 180 0.0 0.0 0.00 0.00 0.00 9 1015.7
20190324175418 24 180 0.0 0.0 0.00 0.00 0.00 13 1015.9
20190324174414 24 180 0.0 0.0 0.00 0.00 0.00 22 1015.5
20190324172726 25 180 0.0 0.0 0.00 0.00 0.00 9 1015.8
20190324171926 25 180 0.0 0.0 0.00 0.00 0.00 11 1015.9
20190324170106 25 180 0.0 0.0 0.00 0.00 0.00 11 1015.9
20190324165010 26 180 0.0 0.0 0.00 0.00 0.00 11 1016.0
20190324164210 26 180 0.0 0.0 0.00 0.00 0.00 9 1015.9
20190324163410 26 180 0.0 0.0 0.00 0.00 0.00 9 1015.6
20190324162507 26 180 0.0 0.0 0.00 0.00 0.00 10 1015.8
20190324161707 26 180 0.0 0.0 0.00 0.00 0.00 10 1015.7
20190324160834 26 180 0.0 0.0 0.00 0.00 0.00 12 1015.7
20190324160034 26 180 0.0 0.0 0.00 0.00 0.00 10 1015.8
20190324155233 26 180 0.0 0.0 0.00 0.00 0.00 8 1015.7
20190324154434 26 180 0.0 0.0 0.00 0.00 0.00 6 1015.7
20190324153633 27 180 0.0 0.0 0.00 0.00 0.00 8 1015.7
20190324152033 27 180 0.0 0.0 0.00 0.00 0.00 5 1015.4
20190324151232 27 180 0.0 0.0 0.00 0.00 0.00 8 1015.4
20190324150432 27 180 0.0 0.0 0.00 0.00 0.00 6 1015.3
20190324145632 27 193 0.0 0.0 0.00 0.00 0.00 9 1015.3
20190324144831 27 225 0.0 0.0 0.00 0.00 0.00 6 1015.4
20190324144031 28 180 0.0 0.0 0.00 0.00 0.00 2 1015.4
20190324143231 28 180 0.0 0.0 0.00 0.00 0.00 4 1015.5
20190324142431 28 180 0.0 0.0 0.00 0.00 0.00 2 1015.4
20190324141630 28 180 0.0 0.0 0.00 0.00 0.00 2 1015.6
20190324140830 28 180 0.0 0.0 0.00 0.00 0.00 5 1015.6
20190324140029 29 135 0.0 0.0 0.00 0.00 0.00 4 1015.5
20190324135229 29 270 0.0 0.0 0.00 0.00 0.00 1 1015.6
20190324134429 29 180 0.0 0.0 0.00 0.00 0.00 91 1015.4
20190324133628 29 180 0.0 0.0 0.00 0.00 0.00 3 1015.6
20190324132828 30 225 0.0 0.0 0.00 0.00 0.00 3 1015.5
20190324132028 30 180 0.0 0.0 0.00 0.00 0.00 5 1015.6
20190324131228 30 180 0.0 0.0 0.00 0.00 0.00 2 1015.6
20190324130427 30 225 0.0 0.0 0.00 0.00 0.00 89 1015.5
20190324125627 30 225 0.0 0.0 0.00 0.00 0.00 90 1015.3
20190324124827 30 225 0.0 0.0 0.00 0.00 0.00 90 1015.5
20190324124026 30 225 0.0 0.0 0.00 0.00 0.00 91 1015.6
20190324123227 31 225 0.0 0.0 0.00 0.00 0.00 90 1015.3
20190324122426 31 225 0.0 0.0 0.00 0.00 0.00 86 1015.3
20190324121626 31 225 0.0 0.0 0.00 0.00 0.00 87 1015.2
20190324120826 32 270 0.0 0.0 0.00 0.00 0.00 85 1015.1
20190324120025 32 135 0.0 0.0 0.00 0.00 0.00 84 1015.3
20190324115225 32 225 0.0 0.0 0.00 0.00 0.00 83 1015.0
20190324114425 33 225 0.0 0.0 0.00 0.00 0.00 82 1014.8
20190324113624 33 225 0.0 0.0 0.00 0.00 0.00 81 1014.8
20190324112824 33 315 0.0 0.0 0.00 0.00 0.00 78 1014.8
20190324112024 34 315 0.0 0.0 0.00 0.00 0.00 80 1014.7
20190324111223 34 6 0.0 0.0 0.00 0.00 0.00 80 1014.6
20190324110423 35 180 0.0 0.0 0.00 0.00 0.00 76 1014.6
20190324105623 35 135 0.0 0.0 0.00 0.00 0.00 79 1014.5
20190324104822 36 193 0.0 0.0 0.00 0.00 0.00 78 1014.4
20190324104022 36 186 0.0 0.0 0.00 0.00 0.00 80 1014.2
20190324103222 36 213 0.0 0.0 0.00 0.00 0.00 78 1014.0
20190324102422 37 87 0.0 0.0 0.00 0.00 0.00 76 1013.8
20190324101621 37 351 0.0 0.0 0.00 0.00 0.00 76 1013.9
20190324100021 38 36 0.0 0.0 0.00 0.00 0.00 73 1013.5
20190324095220 38 145 0.0 0.0 0.00 0.00 0.00 72 1013.6
20190324093620 39 135 0.0 0.0 0.00 0.00 0.00 66 1013.5
20190324092819 39 270 0.0 0.0 0.00 0.00 0.00 66 1013.3
20190324092020 40 180 0.0 0.0 0.00 0.00 0.00 67 1013.3
20190324091219 40 184 0.0 0.0 0.00 0.00 0.00 67 1013.0
20190324090419 41 202 0.0 0.0 0.00 0.00 0.00 65 1012.7
20190324085619 42 24 0.0 0.0 0.00 0.00 0.00 65 1012.4
20190324084818 43 63 0.0 0.0 0.00 0.00 0.00 65 1012.6
20190324084018 44 154 0.0 0.0 0.00 0.00 0.00 64 1012.6
20190324083218 45 191 0.0 0.0 0.00 0.00 0.00 62 1012.2
20190324082417 47 190 0.0 0.0 0.00 0.00 0.00 60 1012.4
20190324081617 49 202 0.0 0.0 0.00 0.00 0.00 56 1012.4
20190324080817 52 195 0.0 0.0 0.00 0.00 0.00 54 1012.0
20190324080016 55 292 0.0 0.0 0.00 0.00 0.00 52 1011.8
20190324075216 58 281 0.0 0.0 0.00 0.00 0.00 51 1011.9
20190324074416 60 270 0.0 0.0 0.00 0.00 0.00 49 1012.0
20190324073615 61 200 0.0 0.0 0.00 0.00 0.00 49 1011.8
20190324072815 60 45 0.0 0.0 0.00 0.00 0.00 1011.7
20190324072015 60 185 0.0 0.0 0.00 0.00 0.00 48 1011.8
20190324071215 60 184 0.0 0.0 0.00 0.00 0.00 49 1011.8
20190324070414 61 190 0.0 0.0 0.00 0.00 0.00 49 1011.6
20190324065614 62 202 0.0 0.0 0.00 0.00 0.00 1011.5
20190324064013 62 202 0.0 0.0 0.00 0.00 0.00 49 1011.8
20190324063213 63 144 0.0 0.0 0.00 0.00 0.00 1011.8
20190324062413 63 190 0.0 0.0 0.00 0.00 0.00 49 1011.7
20190324061614 64 191 0.0 0.0 0.00 0.00 0.00 48 1011.6
20190324060813 65 212 0.0 0.0 0.00 0.00 0.00 47 1011.6
20190324060012 66 326 0.0 0.0 0.00 0.00 0.00 47 1011.5
20190324055212 66 198 0.0 0.0 0.00 0.00 0.00 47 1011.4
20190324054412 65 185 0.0 0.0 0.00 0.00 0.00 48 1011.6
20190324053611 64 205 0.0 0.0 0.00 0.00 0.00 48 1011.5
20190324052811 63 199 0.0 0.0 0.00 0.00 0.00 48 1011.4
20190324052011 63 292 0.0 0.0 0.00 0.00 0.00 49 1011.4
20190324051210 62 225 0.0 0.0 0.00 0.00 0.00 51 1011.3
20190324050410 62 150 0.0 0.0 0.00 0.00 0.00 1011.4
20190324045610 62 150 0.0 0.0 0.00 0.00 0.00 51 1011.6
20190324044809 61 165 0.0 0.0 0.00 0.00 0.00 1011.4
20190324044009 61 190 0.0 0.0 0.00 0.00 0.00 51 1011.7
20190324043209 60 281 0.0 0.0 0.00 0.00 0.00 51 1011.6
20190324042409 60 167 0.0 0.0 0.00 0.00 0.00 52 1011.6
20190324041608 60 200 0.0 0.0 0.00 0.00 0.00 52 1011.7
20190324040808 60 196 0.0 0.0 0.00 0.00 0.00 51 1012.0
20190324040008 60 210 0.0 0.0 0.00 0.00 0.00 52 1011.8
20190324035207 59 78 0.0 0.0 0.00 0.00 0.00 53 1012.0
20190324034408 58 180 0.0 0.0 0.00 0.00 0.00 55 1012.0
20190324033607 57 327 0.0 0.0 0.00 0.00 0.00 57 1012.0
20190324032807 57 184 0.0 0.0 0.00 0.00 0.00 53 1011.8
20190324032007 56 54 0.0 0.0 0.00 0.00 0.00 58 1012.4
20190324031206 56 315 0.0 0.0 0.00 0.00 0.00 55 1012.2
20190324030406 55 311 0.0 0.0 0.00 0.00 0.00 57 1012.2
20190324025606 55 56 0.0 0.0 0.00 0.00 0.00 56 1012.3
20190324024805 55 75 0.0 0.0 0.00 0.00 0.00 58 1012.3
20190324024005 55 126 0.0 0.0 0.00 0.00 0.00 56 1012.2
20190324023205 54 186 0.0 0.0 0.00 0.00 0.00 56 1012.3
20190324022404 53 225 0.0 0.0 0.00 0.00 0.00 60 1012.6
20190324021604 52 13 0.0 0.0 0.00 0.00 0.00 58 1012.1
20190324020804 50 25 0.0 0.0 0.00 0.00 0.00 61 1012.2
20190324020003 49 192 0.0 0.0 0.00 0.00 0.00 60 1012.5
20190324015203 46 258 0.0 0.0 0.00 0.00 0.00 69 1012.4
20190324014403 45 318 0.0 0.0 0.00 0.00 0.00 65 1012.4
20190324013603 45 210 0.0 0.0 0.00 0.00 0.00 67 1012.4